GW2490 Weather Reports


Display with metric or nautical units.
time (UTC)temp
F
wind
direction
speed
MPH
gust
MPH
rain 1hr
in
rain 24hr
in
rain mn
in
humidity
%
barometer
mb
20260505124957 50 115 6.0 9.0 0.00 0.00 0.00 87 1013.2
20260505124942 0 0.0 0.0 0.00 0.00 0.00
20260505124457 50 127 7.0 9.0 0.00 0.00 0.00 87 1013.1
20260505123957 51 120 7.0 8.0 0.00 0.00 0.00 86 1013.1
20260505123941 0 0.0 0.0 0.00 0.00 0.00
20260505123457 51 114 7.0 9.0 0.00 0.00 0.00 86 1012.8
20260505123442 0 0.0 0.0 0.00 0.00 0.00
20260505122958 51 117 7.0 10.0 0.00 0.00 0.00 85 1012.8
20260505122457 52 120 7.0 9.0 0.00 0.00 0.00 84 1012.8
20260505122442 0 0.0 0.0 0.00 0.00 0.00
20260505121958 52 125 6.0 8.0 0.00 0.00 0.00 84 1012.7
20260505121942 0 0.0 0.0 0.00 0.00 0.00
20260505121457 52 124 6.0 8.0 0.00 0.00 0.00 83 1012.7
20260505121442 0 0.0 0.0 0.00 0.00 0.00
20260505120958 53 118 7.0 8.0 0.00 0.00 0.00 83 1012.6
20260505120942 0 0.0 0.0 0.00 0.00 0.00
20260505120457 53 110 7.0 9.0 0.00 0.00 0.00 83 1012.6
20260505120440 0 0.0 0.0 0.00 0.00 0.00
20260505115958 53 132 7.0 9.0 0.00 0.00 0.00 82 1012.6
20260505115939 0 0.0 0.0 0.00 0.00 0.00
20260505115458 53 111 9.0 11.0 0.00 0.00 0.00 82 1012.5
20260505115440 0 0.0 0.0 0.00 0.00 0.00
20260505114957 53 104 9.0 10.0 0.00 0.00 0.00 82 1012.5
20260505114940 0 0.0 0.0 0.00 0.00 0.00
20260505114459 53 111 9.0 10.0 0.00 0.00 0.00 81 1012.5
20260505113958 53 115 8.0 10.0 0.00 0.00 0.00 81 1012.4
20260505113939 0 0.0 0.0 0.00 0.00 0.00
20260505113457 53 99 9.0 10.0 0.00 0.00 0.00 81 1012.3
20260505113440 0 0.0 0.0 0.00 0.00 0.00
20260505112957 54 108 9.0 12.0 0.00 0.00 0.00 80 1012.3
20260505112940 0 0.0 0.0 0.00 0.00 0.00
20260505112457 54 107 9.0 11.0 0.00 0.00 0.00 80 1012.3
20260505111957 54 100 10.0 12.0 0.00 0.00 0.00 80 1012.2
20260505111459 54 114 8.0 10.0 0.00 0.00 0.00 80 1012.1
20260505111439 0 0.0 0.0 0.00 0.00 0.00
20260505111001 54 111 8.0 10.0 0.00 0.00 0.00 79 1012.0
20260505110940 0 0.0 0.0 0.00 0.00 0.00
20260505110457 55 106 9.0 10.0 0.00 0.00 0.00 79 1012.0
20260505110441 0 0.0 0.0 0.00 0.00 0.00
20260505101957 55 108 8.0 11.0 0.00 0.00 0.00 72 1011.9
20260505101938 0 0.0 0.0 0.00 0.00 0.00
20260505101458 55 112 8.0 10.0 0.00 0.00 0.00 72 1011.9
20260505101438 0 0.0 0.0 0.00 0.00 0.00
20260505100957 55 119 8.0 12.0 0.00 0.00 0.00 71 1011.8
20260505100459 55 99 10.0 13.0 0.00 0.00 0.00 71 1011.7
20260505100435 0 0.0 0.0 0.00 0.00 0.00
20260505095957 55 88 12.0 15.0 0.00 0.00 0.00 71 1011.6
20260505095932 0 0.0 0.0 0.00 0.00 0.00
20260505095457 55 111 8.0 11.0 0.00 0.00 0.00 72 1011.7
20260505095432 0 0.0 0.0 0.00 0.00 0.00
20260505094957 55 111 9.0 12.0 0.00 0.00 0.00 72 1011.6
20260505094933 0 0.0 0.0 0.00 0.00 0.00
20260505094457 55 95 10.0 13.0 0.00 0.00 0.00 71 1011.6
20260505093957 54 97 11.0 14.0 0.00 0.00 0.00 72 1011.5
20260505093457 53 134 6.0 8.0 0.00 0.00 0.00 76 1011.6
20260505092957 53 122 7.0 9.0 0.00 0.00 0.00 75 1011.6
20260505092932 0 0.0 0.0 0.00 0.00 0.00
20260505092457 53 106 10.0 12.0 0.00 0.00 0.00 74 1011.4
20260505092433 0 0.0 0.0 0.00 0.00 0.00
20260505091957 52 112 8.0 10.0 0.00 0.00 0.00 79 1011.4
20260505091933 0 0.0 0.0 0.00 0.00 0.00
20260505091457 52 111 8.0 9.0 0.00 0.00 0.00 79 1011.3
20260505090958 51 107 8.0 9.0 0.00 0.00 0.00 80 1011.3
20260505090933 0 0.0 0.0 0.00 0.00 0.00
20260505090458 51 108 8.0 9.0 0.00 0.00 0.00 80 1011.3
20260505085957 52 111 8.0 10.0 0.00 0.00 0.00 80 1011.3
20260505085930 0 0.0 0.0 0.00 0.00 0.00
20260505085457 52 107 8.0 9.0 0.00 0.00 0.00 79 1011.2
20260505085430 0 0.0 0.0 0.00 0.00 0.00
20260505084957 52 105 9.0 10.0 0.00 0.00 0.00 79 1011.0
20260505084930 0 0.0 0.0 0.00 0.00 0.00
20260505084457 53 102 9.0 12.0 0.00 0.00 0.00 77 1011.0
20260505084430 0 0.0 0.0 0.00 0.00 0.00
20260505083957 53 109 7.0 9.0 0.00 0.00 0.00 77 1010.9
20260505083930 0 0.0 0.0 0.00 0.00 0.00
20260505083457 54 109 8.0 9.0 0.00 0.00 0.00 76 1010.9
20260505083431 0 0.0 0.0 0.00 0.00 0.00
20260505082957 56 108 8.0 9.0 0.00 0.00 0.00 74 1010.9
20260505082931 0 0.0 0.0 0.00 0.00 0.00
20260505082457 57 114 6.0 7.0 0.00 0.00 0.00 68 1010.9
20260505082430 0 0.0 0.0 0.00 0.00 0.00
20260505081957 54 100 7.0 8.0 0.00 0.00 0.00 73 1010.8
20260505081931 0 0.0 0.0 0.00 0.00 0.00
20260505081457 54 104 7.0 8.0 0.00 0.00 0.00 75 1010.7
20260505081436 0 0.0 0.0 0.00 0.00 0.00
20260505080957 55 108 8.0 9.0 0.00 0.00 0.00 73 1010.6
20260505080931 0 0.0 0.0 0.00 0.00 0.00
20260505080457 55 101 7.0 8.0 0.00 0.00 0.00 73 1010.6
20260505080431 0 0.0 0.0 0.00 0.00 0.00
20260505075957 55 105 7.0 8.0 0.00 0.00 0.00 74 1010.5
20260505075928 0 0.0 0.0 0.00 0.00 0.00
20260505075457 56 107 7.0 9.0 0.00 0.00 0.00 73 1010.5
20260505074957 56 106 7.0 8.0 0.00 0.00 0.00 71 1010.5
20260505074928 0 0.0 0.0 0.00 0.00 0.00
20260505074457 56 104 7.0 8.0 0.00 0.00 0.00 71 1010.5
20260505074429 0 0.0 0.0 0.00 0.00 0.00
20260505073957 56 107 7.0 9.0 0.00 0.00 0.00 71 1010.4
20260505073929 0 0.0 0.0 0.00 0.00 0.00
20260505073457 56 102 7.0 8.0 0.00 0.00 0.00 71 1010.3
20260505073429 0 0.0 0.0 0.00 0.00 0.00
20260505072957 56 101 7.0 9.0 0.00 0.00 0.00 71 1010.3
20260505072929 0 0.0 0.0 0.00 0.00 0.00
20260505072458 57 109 8.0 9.0 0.00 0.00 0.00 71 1010.2
20260505072429 0 0.0 0.0 0.00 0.00 0.00
20260505071957 57 102 7.0 9.0 0.00 0.00 0.00 70 1010.2
20260505071929 0 0.0 0.0 0.00 0.00 0.00
20260505071457 58 111 6.0 7.0 0.00 0.00 0.00 69 1010.1
20260505070957 60 106 6.0 7.0 0.00 0.00 0.00 67 1010.1
20260505070928 0 0.0 0.0 0.00 0.00 0.00
20260505070457 61 99 6.0 7.0 0.00 0.00 0.00 64 1010.0
20260505070426 0 0.0 0.0 0.00 0.00 0.00
20260505065958 64 104 5.0 6.0 0.00 0.00 0.00 62 1010.0
20260505065927 0 0.0 0.0 0.00 0.00 0.00
20260505065457 66 99 5.0 6.0 0.00 0.00 0.00 55 1010.0
20260505065427 0 0.0 0.0 0.00 0.00 0.00
20260505064957 66 93 5.0 6.0 0.00 0.00 0.00 57 1010.0
20260505064458 67 94 4.0 5.0 0.00 0.00 0.00 55 1009.9
20260505063957 68 103 4.0 5.0 0.00 0.00 0.00 53 1009.9
20260505063457 68 89 5.0 6.0 0.00 0.00 0.00 52 1009.8
20260505062957 68 94 5.0 6.0 0.00 0.00 0.00 53 1009.8
20260505062927 0 0.0 0.0 0.00 0.00 0.00
20260505062457 69 82 4.0 4.0 0.00 0.00 0.00 53 1009.8
20260505062427 0 0.0 0.0 0.00 0.00 0.00
20260505061958 68 72 4.0 6.0 0.00 0.00 0.00 51 1009.8
20260505061927 0 0.0 0.0 0.00 0.00 0.00
20260505061457 67 87 4.0 6.0 0.00 0.00 0.00 54 1009.8
20260505061427 0 0.0 0.0 0.00 0.00 0.00
20260505060957 67 80 4.0 5.0 0.00 0.00 0.00 53 1009.8
20260505060925 0 0.0 0.0 0.00 0.00 0.00
20260505060457 66 76 5.0 6.0 0.00 0.00 0.00 52 1009.8
20260505060426 0 0.0 0.0 0.00 0.00 0.00
20260505055959 67 103 6.0 7.0 0.00 0.00 0.00 52 1009.7
20260505055925 0 0.0 0.0 0.00 0.00 0.00
20260505055457 67 100 5.0 6.0 0.00 0.00 0.00 52 1009.7
20260505055425 0 0.0 0.0 0.00 0.00 0.00
20260505054957 68 99 5.0 6.0 0.00 0.00 0.00 52 1009.5
20260505054925 0 0.0 0.0 0.00 0.00 0.00
20260505054459 69 100 5.0 6.0 0.00 0.00 0.00 49 1009.5
20260505054426 0 0.0 0.0 0.00 0.00 0.00
20260505053957 70 84 5.0 5.0 0.00 0.00 0.00 47 1009.5
20260505053457 70 75 4.0 4.0 0.00 0.00 0.00 47 1009.5
20260505053426 0 0.0 0.0 0.00 0.00 0.00
20260505052957 70 81 4.0 5.0 0.00 0.00 0.00 46 1009.5
20260505052926 0 0.0 0.0 0.00 0.00 0.00
20260505052457 70 76 4.0 5.0 0.00 0.00 0.00 45 1009.5
20260505052426 0 0.0 0.0 0.00 0.00 0.00
20260505051957 69 72 4.0 5.0 0.00 0.00 0.00 46 1009.4
20260505051457 69 100 5.0 7.0 0.00 0.00 0.00 54 1009.4
20260505051427 0 0.0 0.0 0.00 0.00 0.00
20260505050957 70 62 3.0 4.0 0.00 0.00 0.00 49 1009.4
20260505050925 0 0.0 0.0 0.00 0.00 0.00
20260505050457 70 59 3.0 4.0 0.00 0.00 0.00 46 1009.3
20260505041459 71 49 3.0 5.0 0.00 0.00 0.00 45 1009.1
20260505041423 0 0.0 0.0 0.00 0.00 0.00
20260505040957 72 45 4.0 6.0 0.00 0.00 0.00 45 1009.1
20260505040923 0 0.0 0.0 0.00 0.00 0.00
20260505040457 73 55 4.0 5.0 0.00 0.00 0.00 44 1009.0
20260505040424 0 0.0 0.0 0.00 0.00 0.00
20260505035958 74 74 3.0 4.0 0.00 0.00 0.00 43 1009.0
20260505035457 74 80 3.0 4.0 0.00 0.00 0.00 42 1009.0
20260505035423 0 0.0 0.0 0.00 0.00 0.00
20260505034957 73 89 6.0 7.0 0.00 0.00 0.00 43 1009.0
20260505034458 72 73 4.0 6.0 0.00 0.00 0.00 44 1008.9
20260505034423 0 0.0 0.0 0.00 0.00 0.00
20260505033958 72 68 2.0 4.0 0.00 0.00 0.00 45 1008.9
20260505033924 0 0.0 0.0 0.00 0.00 0.00
20260505033458 72 47 2.0 4.0 0.00 0.00 0.00 45 1008.9
20260505033424 0 0.0 0.0 0.00 0.00 0.00
20260505032957 72 60 2.0 6.0 0.00 0.00 0.00 45 1008.9
20260505032923 0 0.0 0.0 0.00 0.00 0.00
20260505032457 73 55 3.0 4.0 0.00 0.00 0.00 45 1008.9
20260505032424 0 0.0 0.0 0.00 0.00 0.00
20260505031957 73 71 2.0 4.0 0.00 0.00 0.00 44 1008.8
20260505031924 0 0.0 0.0 0.00 0.00 0.00
20260505031457 73 76 2.0 3.0 0.00 0.00 0.00 44 1008.8
20260505031424 0 0.0 0.0 0.00 0.00 0.00
20260505030957 73 54 2.0 3.0 0.00 0.00 0.00 44 1008.8
20260505030921 0 0.0 0.0 0.00 0.00 0.00
20260505030457 74 61 3.0 5.0 0.00 0.00 0.00 45 1008.7
20260505030422 0 0.0 0.0 0.00 0.00 0.00
20260505025957 74 70 2.0 4.0 0.00 0.00 0.00 44 1008.7
20260505025457 74 91 3.0 4.0 0.00 0.00 0.00 43 1008.7
20260505025421 0 0.0 0.0 0.00 0.00 0.00
20260505024957 75 78 2.0 3.0 0.00 0.00 0.00 43 1008.7
20260505024922 0 0.0 0.0 0.00 0.00 0.00
20260505024457 75 93 3.0 4.0 0.00 0.00 0.00 44 1008.7
20260505024422 0 0.0 0.0 0.00 0.00 0.00
20260505023957 75 78 1.0 2.0 0.00 0.00 0.00 44 1008.7
20260505023922 0 0.0 0.0 0.00 0.00 0.00
20260505023457 75 59 0.0 3.0 0.00 0.00 0.00 44 1008.8
20260505022957 75 53 0.0 1.0 0.00 0.00 0.00 45 1008.8
20260505022922 0 0.0 0.0 0.00 0.00 0.00
20260505022459 74 85 2.0 3.0 0.00 0.00 0.00 47 1008.9
20260505021957 74 100 2.0 3.0 0.00 0.00 0.00 48 1008.9
20260505021922 0 0.0 0.0 0.00 0.00 0.00
20260505021457 74 89 4.0 5.0 0.00 0.00 0.00 47 1008.9
20260505020957 74 147 1.0 2.0 0.00 0.00 0.00 49 1009.0
20260505020923 0 0.0 0.0 0.00 0.00 0.00
20260505020457 74 87 4.0 6.0 0.00 0.00 0.00 49 1009.0
20260505020422 0 0.0 0.0 0.00 0.00 0.00
20260505015957 74 140 1.0 2.0 0.00 0.00 0.00 47 1009.1
20260505015921 0 0.0 0.0 0.00 0.00 0.00
20260505015458 74 88 4.0 4.0 0.00 0.00 0.00 48 1009.1
20260505015420 0 0.0 0.0 0.00 0.00 0.00
20260505014957 74 115 3.0 4.0 0.00 0.00 0.00 49 1009.2
20260505014457 73 90 4.0 6.0 0.00 0.00 0.00 49 1009.2
20260505014420 0 0.0 0.0 0.00 0.00 0.00
20260505013957 73 123 3.0 4.0 0.00 0.00 0.00 47 1009.2
20260505013920 0 0.0 0.0 0.00 0.00 0.00
20260505013457 73 112 4.0 5.0 0.00 0.00 0.00 47 1009.3
20260505013420 0 0.0 0.0 0.00 0.00 0.00
20260505012957 74 122 3.0 4.0 0.00 0.00 0.00 47 1009.3
20260505012920 0 0.0 0.0 0.00 0.00 0.00
20260505012457 74 131 3.0 4.0 0.00 0.00 0.00 47 1009.3
20260505012420 0 0.0 0.0 0.00 0.00 0.00
20260505011957 74 135 3.0 5.0 0.00 0.00 0.00 46 1009.3
20260505011920 0 0.0 0.0 0.00 0.00 0.00
20260505011458 74 129 4.0 5.0 0.00 0.00 0.00 47 1009.4
20260505011420 0 0.0 0.0 0.00 0.00 0.00
20260505010957 74 141 3.0 5.0 0.00 0.00 0.00 47 1009.4
20260505010457 74 125 3.0 4.0 0.00 0.00 0.00 47 1009.4
20260505010417 0 0.0 0.0 0.00 0.00 0.00
20260505005957 74 145 3.0 4.0 0.00 0.00 0.00 48 1009.5
20260505005918 0 0.0 0.0 0.00 0.00 0.00
20260505005458 74 127 3.0 4.0 0.00 0.00 0.00 47 1009.5
20260505005417 0 0.0 0.0 0.00 0.00 0.00
20260505004957 73 145 3.0 6.0 0.00 0.00 0.00 48 1009.5
20260505004457 74 117 4.0 6.0 0.00 0.00 0.00 47 1009.5
20260505004418 0 0.0 0.0 0.00 0.00 0.00
20260505003957 73 148 4.0 5.0 0.00 0.00 0.00 48 1009.5
20260505003917 0 0.0 0.0 0.00 0.00 0.00
20260505003457 74 120 4.0 7.0 0.00 0.00 0.00 46 1009.5
20260505003418 0 0.0 0.0 0.00 0.00 0.00
20260505002957 74 132 3.0 4.0 0.00 0.00 0.00 47 1009.5
20260505002917 0 0.0 0.0 0.00 0.00 0.00
20260505002458 74 135 3.0 4.0 0.00 0.00 0.00 49 1009.5
20260505001957 74 165 4.0 6.0 0.00 0.00 0.00 50 1009.7
20260505001457 74 158 3.0 5.0 0.00 0.00 0.00 50 1009.7
20260505001418 0 0.0 0.0 0.00 0.00 0.00
20260505000957 73 126 3.0 5.0 0.00 0.00 0.00 51 1009.7
20260505000918 0 0.0 0.0 0.00 0.00 0.00
20260505000457 73 172 4.0 6.0 0.00 0.00 0.00 51 1009.8
20260505000417 0 0.0 0.0 0.00 0.00 0.00
20260504235957 74 123 3.0 4.0 0.00 0.00 0.00 51 1009.9
20260504235916 0 0.0 0.0 0.00 0.00 0.00
20260504235458 73 143 3.0 4.0 0.00 0.00 0.00 51 1009.9
20260504235417 0 0.0 0.0 0.00 0.00 0.00
20260504234957 73 184 4.0 6.0 0.00 0.00 0.00 51 1009.9
20260504234457 73 155 5.0 7.0 0.00 0.00 0.00 51 1009.9
20260504233957 73 166 4.0 6.0 0.00 0.00 0.00 51 1009.9
20260504233917 0 0.0 0.0 0.00 0.00 0.00
20260504233457 73 185 4.0 6.0 0.00 0.00 0.00 51 1009.8
20260504233417 0 0.0 0.0 0.00 0.00 0.00
20260504232957 74 177 3.0 5.0 0.00 0.00 0.00 50 1009.9
20260504232917 0 0.0 0.0 0.00 0.00 0.00
20260504232457 73 171 4.0 6.0 0.00 0.00 0.00 51 1009.9
20260504232418 0 0.0 0.0 0.00 0.00 0.00
20260504231957 73 193 5.0 8.0 0.00 0.00 0.00 51 1009.9
20260504231917 0 0.0 0.0 0.00 0.00 0.00
20260504231457 74 189 4.0 7.0 0.00 0.00 0.00 51 1010.0
20260504231417 0 0.0 0.0 0.00 0.00 0.00
20260504230957 74 177 5.0 6.0 0.00 0.00 0.00 51 1010.0
20260504230913 0 0.0 0.0 0.00 0.00 0.00
20260504230457 74 182 3.0 6.0 0.00 0.00 0.00 51 1010.0
20260504230413 0 0.0 0.0 0.00 0.00 0.00
20260504225957 74 180 4.0 5.0 0.00 0.00 0.00 52 1010.1
20260504225914 0 0.0 0.0 0.00 0.00 0.00
20260504225458 75 150 4.0 5.0 0.00 0.00 0.00 52 1010.1
20260504224957 75 165 3.0 4.0 0.00 0.00 0.00 50 1010.2
20260504224914 0 0.0 0.0 0.00 0.00 0.00
20260504224457 74 191 3.0 5.0 0.00 0.00 0.00 52 1010.2
20260504223958 74 142 2.0 3.0 0.00 0.00 0.00 52 1010.3
20260504223915 0 0.0 0.0 0.00 0.00 0.00
20260504223457 74 187 4.0 7.0 0.00 0.00 0.00 52 1010.3
20260504223415 0 0.0 0.0 0.00 0.00 0.00
20260504222957 74 143 3.0 6.0 0.00 0.00 0.00 52 1010.3
20260504222914 0 0.0 0.0 0.00 0.00 0.00
20260504222457 75 200 3.0 5.0 0.00 0.00 0.00 51 1010.3
20260504222415 0 0.0 0.0 0.00 0.00 0.00
20260504221958 75 205 2.0 4.0 0.00 0.00 0.00 52 1010.3
20260504221913 0 0.0 0.0 0.00 0.00 0.00
20260504221457 75 199 3.0 5.0 0.00 0.00 0.00 52 1010.3
20260504221411 0 0.0 0.0 0.00 0.00 0.00
20260504220958 75 162 3.0 5.0 0.00 0.00 0.00 52 1010.4
20260504220912 0 0.0 0.0 0.00 0.00 0.00
20260504220504 75 178 3.0 5.0 0.00 0.00 0.00 52 1010.4
20260504220409 0 0.0 0.0 0.00 0.00 0.00
20260504215957 75 151 5.0 7.0 0.00 0.00 0.00 52 1010.4
20260504215908 0 0.0 0.0 0.00 0.00 0.00
20260504215457 75 164 3.0 5.0 0.00 0.00 0.00 52 1010.5
20260504215409 0 0.0 0.0 0.00 0.00 0.00
20260504214957 75 242 4.0 7.0 0.00 0.00 0.00 52 1010.5
20260504214914 0 0.0 0.0 0.00 0.00 0.00
20260504214457 75 218 4.0 8.0 0.00 0.00 0.00 52 1010.5
20260504213958 75 168 3.0 4.0 0.00 0.00 0.00 53 1010.5
20260504213458 74 209 3.0 6.0 0.00 0.00 0.00 53 1010.5
20260504213413 0 0.0 0.0 0.00 0.00 0.00
20260504213004 75 262 4.0 6.0 0.00 0.00 0.00 52 1010.6
20260504212909 0 0.0 0.0 0.00 0.00 0.00
20260504212457 75 220 3.0 4.0 0.00 0.00 0.00 53 1010.6
20260504212408 0 0.0 0.0 0.00 0.00 0.00
20260504211957 75 264 4.0 6.0 0.00 0.00 0.00 53 1010.6
20260504211457 75 234 4.0 6.0 0.00 0.00 0.00 52 1010.6
20260504211406 0 0.0 0.0 0.00 0.00 0.00
20260504210957 74 213 4.0 8.0 0.00 0.00 0.00 53 1010.7
20260504210907 0 0.0 0.0 0.00 0.00 0.00
20260504210458 74 256 3.0 7.0 0.00 0.00 0.00 52 1010.7
20260504210404 0 0.0 0.0 0.00 0.00 0.00
20260504210000 74 247 4.0 6.0 0.00 0.00 0.00 53 1010.7
20260504205903 0 0.0 0.0 0.00 0.00 0.00
20260504205457 73 213 3.0 6.0 0.00 0.00 0.00 54 1010.6
20260504205404 0 0.0 0.0 0.00 0.00 0.00
20260504204958 74 244 2.0 7.0 0.00 0.00 0.00 53 1010.6
20260504204903 0 0.0 0.0 0.00 0.00 0.00
20260504204458 74 225 5.0 7.0 0.00 0.00 0.00 53 1010.7
20260504204401 0 0.0 0.0 0.00 0.00 0.00
20260504203957 74 248 3.0 6.0 0.00 0.00 0.00 53 1010.8
20260504203901 0 0.0 0.0 0.00 0.00 0.00
20260504203459 74 236 4.0 6.0 0.00 0.00 0.00 53 1010.9
20260504203401 0 0.0 0.0 0.00 0.00 0.00
20260504202957 73 220 4.0 6.0 0.00 0.00 0.00 54 1010.8
20260504202901 0 0.0 0.0 0.00 0.00 0.00
20260504202401 0 0.0 0.0 0.00 0.00 0.00
20260504202008 74 254 4.0 7.0 0.00 0.00 0.00 50 1010.8
20260504201901 0 0.0 0.0 0.00 0.00 0.00
20260504201458 74 231 2.0 3.0 0.00 0.00 0.00 50 1010.9
20260504201359 0 0.0 0.0 0.00 0.00 0.00
20260504201000 74 276 4.0 6.0 0.00 0.00 0.00 50 1010.9
20260504200858 0 0.0 0.0 0.00 0.00 0.00
20260504200459 73 256 2.0 3.0 0.00 0.00 0.00 52 1011.0
20260504200358 0 0.0 0.0 0.00 0.00 0.00
20260504195957 73 292 4.0 6.0 0.00 0.00 0.00 53 1011.0
20260504195855 0 0.0 0.0 0.00 0.00 0.00
20260504195458 73 257 5.0 7.0 0.00 0.00 0.00 54 1010.9
20260504195356 0 0.0 0.0 0.00 0.00 0.00
20260504194957 72 264 4.0 7.0 0.00 0.00 0.00 55 1010.9
20260504194855 0 0.0 0.0 0.00 0.00 0.00
20260504194457 72 225 6.0 8.0 0.00 0.00 0.00 54 1010.9
20260504194356 0 0.0 0.0 0.00 0.00 0.00
20260504193957 71 250 3.0 5.0 0.00 0.00 0.00 55 1010.9
20260504193855 0 0.0 0.0 0.00 0.00 0.00
20260504193457 71 265 3.0 5.0 0.00 0.00 0.00 54 1010.8
20260504193356 0 0.0 0.0 0.00 0.00 0.00
20260504192957 71 201 3.0 5.0 0.00 0.00 0.00 56 1010.8
20260504192855 0 0.0 0.0 0.00 0.00 0.00
20260504192458 71 212 3.0 7.0 0.00 0.00 0.00 55 1010.8
20260504192356 0 0.0 0.0 0.00 0.00 0.00
20260504191957 71 273 4.0 5.0 0.00 0.00 0.00 55 1010.9
20260504191457 71 199 3.0 6.0 0.00 0.00 0.00 55 1010.8
20260504191354 0 0.0 0.0 0.00 0.00 0.00
20260504190957 71 221 4.0 5.0 0.00 0.00 0.00 55 1010.9
20260504190854 0 0.0 0.0 0.00 0.00 0.00
20260504190458 72 247 4.0 8.0 0.00 0.00 0.00 54 1010.9
20260504190351 0 0.0 0.0 0.00 0.00 0.00
20260504185958 71 236 2.0 5.0 0.00 0.00 0.00 54 1010.9
20260504185850 0 0.0 0.0 0.00 0.00 0.00
20260504185457 71 266 3.0 6.0 0.00 0.00 0.00 52 1010.9
20260504185351 0 0.0 0.0 0.00 0.00 0.00
20260504184957 71 235 4.0 6.0 0.00 0.00 0.00 53 1011.0
20260504184457 71 215 2.0 4.0 0.00 0.00 0.00 54 1011.0
20260504184350 0 0.0 0.0 0.00 0.00 0.00
20260504184000 71 241 3.0 6.0 0.00 0.00 0.00 53 1011.0
20260504183851 0 0.0 0.0 0.00 0.00 0.00
20260504183459 71 206 3.0 4.0 0.00 0.00 0.00 53 1010.9
20260504183351 0 0.0 0.0 0.00 0.00 0.00
20260504182957 71 258 3.0 6.0 0.00 0.00 0.00 53 1010.9
20260504182851 0 0.0 0.0 0.00 0.00 0.00
20260504182457 71 268 2.0 4.0 0.00 0.00 0.00 54 1011.0
20260504181957 71 243 3.0 5.0 0.00 0.00 0.00 54 1010.9
20260504181851 0 0.0 0.0 0.00 0.00 0.00
20260504181458 71 216 4.0 6.0 0.00 0.00 0.00 55 1010.9
20260504181351 0 0.0 0.0 0.00 0.00 0.00
20260504180957 71 175 3.0 5.0 0.00 0.00 0.00 55 1010.9
20260504180848 0 0.0 0.0 0.00 0.00 0.00
20260504180458 70 221 2.0 4.0 0.00 0.00 0.00 54 1010.9
20260504180349 0 0.0 0.0 0.00 0.00 0.00
20260504175958 70 170 2.0 3.0 0.00 0.00 0.00 54 1011.0
20260504175848 0 0.0 0.0 0.00 0.00 0.00
20260504175459 70 262 3.0 4.0 0.00 0.00 0.00 55 1010.9
20260504175349 0 0.0 0.0 0.00 0.00 0.00
20260504175005 70 195 1.0 3.0 0.00 0.00 0.00 58 1011.0
20260504174848 0 0.0 0.0 0.00 0.00 0.00
20260504174457 69 206 2.0 3.0 0.00 0.00 0.00 60 1010.9
20260504174349 0 0.0 0.0 0.00 0.00 0.00
20260504173957 69 194 2.0 4.0 0.00 0.00 0.00 59 1011.0
20260504173849 0 0.0 0.0 0.00 0.00 0.00
20260504173457 69 187 2.0 3.0 0.00 0.00 0.00 59 1010.9
20260504173348 0 0.0 0.0 0.00 0.00 0.00
20260504172957 69 284 1.0 2.0 0.00 0.00 0.00 57 1011.0
20260504172457 69 234 3.0 4.0 0.00 0.00 0.00 57 1011.0
20260504171957 68 238 2.0 2.0 0.00 0.00 0.00 58 1010.9
20260504171849 0 0.0 0.0 0.00 0.00 0.00
20260504171458 68 199 2.0 4.0 0.00 0.00 0.00 60 1011.0
20260504171349 0 0.0 0.0 0.00 0.00 0.00
20260504170957 68 251 2.0 5.0 0.00 0.00 0.00 61 1010.9
20260504170850 0 0.0 0.0 0.00 0.00 0.00
20260504170457 69 162 2.0 3.0 0.00 0.00 0.00 57 1010.9
20260504160341 0 0.0 0.0 0.00 0.00 0.00
20260504151009 65 18 1.0 2.0 0.00 0.00 0.00 56 1010.8
20260504150457 65 359 1.0 2.0 0.00 0.00 0.00 56 1010.8
20260504150341 0 0.0 0.0 0.00 0.00 0.00
20260504141310 0 0.0 0.0 0.00 0.00 0.00
20260504140958 61 31 2.0 3.0 0.00 0.00 0.00 60 1010.2
20260504140810 0 0.0 0.0 0.00 0.00 0.00
20260504140458 61 33 2.0 2.0 0.00 0.00 0.00 60 1010.2
20260504140310 0 0.0 0.0 0.00 0.00 0.00